Flag for Russia Weather past 2 weeks in Samara, Russia

Now
48 °F

Passing clouds.


Feels Like: 46 °F
Forecast: 37 / 62 °F
Wind: 6 mph from West

Location: Samara

Current Time: Sep 19, 2014 at 10:24:05 AM

Latest Report: Sep 19, 2014 at 9:30 AM


Visibility: N/A

Pressure: 30.45 "Hg

Humidity: 54%

Dew point: 32 °F

Location of SamaraLocation

Historic Weather in Samara — Graph

°F

Samara temperature yesterday

Maximum temperature yesterday: 48 °F (at 1:30 PM)
Minimum temperature yesterday: 39 °F (at 3:30 AM)
Average temperature yesterday: 44 °F

Past Weeks' High & Low Weather Summary

 TemperatureHumidityPressure
High75 °F (Sep 12, 4:00 PM)94% (Sep 15, 7:30 AM)30.45 "Hg (Sep 15, 7:30 AM)
Low36 °F (Sep 17, 6:00 AM)18% (Sep 12, 5:00 PM)29.92 "Hg (Sep 16, 1:00 PM)
Average56 °F55%30.16 "Hg
* Reported Sep 4 9:00 AM — Sep 19 9:00 AM, Samara, Weather by CustomWeather, © 2014

Note: Actual official high and low records may vary slightly from our data, if they occured in-between our weather recording intervals... More about our weather records

Advertising

Samara weather history for previous 24 hours

 ConditionsComfort  
Time TempWeatherWind HumidityBarometerVisibility
9:00 AM
Sep 19
46 °FSunny.8 mph57%30.45 "Hg10 mi
8:30 AM45 °FSunny.8 mph57%30.45 "Hg10 mi
8:00 AM43 °FSunny.6 mph66%30.45 "Hg10 mi
7:30 AM43 °FSunny.6 mph61%30.45 "Hg10 mi
7:00 AM41 °FPartly cloudy.6 mph70%30.42 "HgN/A
6:30 AM37 °FPartly cloudy.6 mph75%30.42 "HgN/A
6:00 AM37 °FPartly cloudy.6 mph75%30.42 "HgN/A
5:30 AM41 °FMostly cloudy.3 mph66%30.42 "HgN/A
5:00 AM41 °FMostly cloudy.3 mph70%30.42 "HgN/A
4:30 AM41 °FMostly cloudy.3 mph70%30.42 "HgN/A
4:00 AM43 °FMostly cloudy.3 mph66%30.42 "HgN/A
3:30 AM43 °FMostly cloudy.3 mph66%30.42 "HgN/A
3:00 AM43 °FMostly cloudy.1 mph66%30.42 "HgN/A
2:30 AM43 °FMostly cloudy.3 mph66%30.42 "HgN/A
2:00 AM43 °FMostly cloudy.3 mph66%30.39 "HgN/A
1:30 AM45 °FMostly cloudy.3 mph57%30.39 "HgN/A
1:00 AM45 °FMostly cloudy.3 mph61%30.39 "HgN/A
12:30 AM45 °FMostly cloudy.3 mph57%30.39 "HgN/A
12:00 AM45 °FMostly cloudy.3 mph57%30.39 "HgN/A
11:30 PM
Sep 18
43 °FMostly cloudy.3 mph61%30.39 "HgN/A
11:00 PM43 °FMostly cloudy.3 mph61%30.39 "HgN/A
10:30 PM45 °FMostly cloudy.6 mph53%30.36 "HgN/A
10:00 PM45 °FMostly cloudy.6 mph53%30.36 "HgN/A
9:30 PM45 °FMostly cloudy.3 mph49%30.36 "HgN/A
9:00 PM45 °FMostly cloudy.3 mph49%30.36 "HgN/A
8:30 PM45 °FMostly cloudy.3 mph49%30.33 "HgN/A
8:00 PM45 °FMostly cloudy.3 mph46%30.33 "HgN/A
7:30 PM45 °FMostly cloudy.1 mph46%30.33 "HgN/A
7:00 PM45 °FBroken clouds.3 mph46%30.33 "HgN/A
6:30 PM46 °FBroken clouds.6 mph43%30.30 "HgN/A
6:00 PM46 °FPartly sunny.8 mph40%30.30 "HgN/A
5:30 PM46 °FBroken clouds.8 mph40%30.30 "HgN/A
5:00 PM48 °FBroken clouds.10 mph37%30.30 "HgN/A
4:30 PM48 °FBroken clouds.10 mph34%30.30 "HgN/A
4:00 PM48 °FBroken clouds.13 mph34%30.30 "HgN/A
3:30 PM48 °FCloudy.10 mph34%30.30 "HgN/A
3:00 PM46 °FCloudy.10 mph43%30.30 "HgN/A
2:30 PM46 °FCloudy.13 mph43%30.30 "HgN/A
2:00 PM46 °FCloudy.13 mph40%30.30 "HgN/A
1:30 PM48 °FCloudy.10 mph40%30.30 "HgN/A
1:00 PM46 °FCloudy.13 mph43%30.27 "HgN/A
12:30 PM46 °FCloudy.10 mph43%30.27 "HgN/A
12:00 PM45 °FMore clouds than sun.10 mph53%30.27 "HgN/A
11:30 AM45 °FMore clouds than sun.8 mph57%30.27 "HgN/A
11:00 AM45 °FMore clouds than sun.10 mph53%30.27 "HgN/A
10:30 AM45 °FMore clouds than sun.10 mph53%30.27 "HgN/A
10:00 AM45 °FMostly cloudy.10 mph53%30.27 "HgN/A
Weather by CustomWeather, © 2014

See weather overviewHow to use our weather pages